Starlink 31633

operational
NORAD ID: 59331 Int'l Des: 2024-057 Owner: SPXS Country: US Constellation: starlink
LEOCIRCULAR

About Starlink 31633

Description loading...

Live Position

Loading 3D Globe...

Upcoming Passes

Altitude History

Altitude vs Time

uPlot chart will show altitude changes over time

Two-Line Element Set

1 59331U 24057M 26102.08083512 -.00000202 00000-0 21951-5 0 9995
2 59331 43.0023 358.6841 0001262 276.5594 83.5114 15.27570051114943
Epoch: Apr 12, 2026 • Age: 18 hours

Current Status

Altitude 487.0 km
Velocity 7.63 km/s
Sub-Earth Point 42.90°N, 43.04°W
Launch Date Mar 25, 2024
Age 2 years
Type internet

Technical Details

Classification Payload
Mass 730.00 kg
Dry Mass 700.00 kg
Total Mass 730.00 kg
Length 0.30 m
Diameter 4.10 m
Span 29.00 m
Shape Box + pan
Manufacturer SPXS
Bus Type Starlink V2M
Phase Status In Orbit
Owner/State SPXS/US

Large Constellations

Loading constellations...